| time (UTC) | temp F | wind direction | speed MPH | gust MPH | rain 1hr in | rain 24hr in | rain mn in | humidity % | barometer mb |
| 20260901051821 | 82 | 290 | 14.0 | 21.0 | 0.00 | 0.00 | 0.00 | 25 | 1010.6 |
| 20260901051333 | 82 | 279 | 15.0 | 21.0 | 0.00 | 0.00 | 0.00 | 25 | 1010.6 |
| 20260901050823 | 83 | 262 | 16.0 | 21.0 | 0.00 | 0.00 | 0.00 | 25 | 1010.5 |
| 20260901050333 | 83 | 257 | 16.0 | 21.0 | 0.00 | 0.00 | 0.00 | 25 | 1010.6 |
| 20260901045820 | 83 | 265 | 16.0 | 21.0 | 0.00 | 0.00 | 0.00 | 25 | 1010.6 |
| 20260901045331 | 83 | 261 | 15.0 | 19.0 | 0.00 | 0.00 | 0.00 | 25 | 1010.5 |
| 20260901044822 | 84 | 279 | 15.0 | 21.0 | 0.00 | 0.00 | 0.00 | 25 | 1010.5 |
| 20260901044337 | 84 | 259 | 14.0 | 21.0 | 0.00 | 0.00 | 0.00 | 26 | 1010.5 |
| 20260901043828 | 84 | 281 | 11.0 | 16.0 | 0.00 | 0.00 | 0.00 | 26 | 1010.4 |
| 20260901043339 | 84 | 289 | 10.0 | 19.0 | 0.00 | 0.00 | 0.00 | 26 | 1010.3 |
| 20260901042829 | 84 | 288 | 13.0 | 21.0 | 0.00 | 0.00 | 0.00 | 26 | 1010.3 |
| 20260901042319 | 85 | 269 | 15.0 | 21.0 | 0.00 | 0.00 | 0.00 | 26 | 1010.3 |
| 20260901041851 | 85 | 269 | 15.0 | 20.0 | 0.00 | 0.00 | 0.00 | 26 | 1010.2 |
| 20260901041319 | 85 | 277 | 15.0 | 23.0 | 0.00 | 0.00 | 0.00 | 26 | 1010.2 |
| 20260901040831 | 85 | 291 | 15.0 | 21.0 | 0.00 | 0.00 | 0.00 | 26 | 1010.2 |
| 20260901040322 | 85 | 257 | 16.0 | 21.0 | 0.00 | 0.00 | 0.00 | 25 | 1010.1 |
| 20260901035831 | 85 | 265 | 17.0 | 21.0 | 0.00 | 0.00 | 0.00 | 25 | 1010.2 |
| 20260901035341 | 86 | 278 | 16.0 | 20.0 | 0.00 | 0.00 | 0.00 | 26 | 1010.2 |
| 20260901034817 | 86 | 274 | 13.0 | 19.0 | 0.00 | 0.00 | 0.00 | 26 | 1010.1 |
| 20260901034325 | 86 | 281 | 15.0 | 23.0 | 0.00 | 0.00 | 0.00 | 26 | 1010.0 |
| 20260901033818 | 86 | 295 | 16.0 | 23.0 | 0.00 | 0.00 | 0.00 | 25 | 1009.9 |
| 20260901033329 | 86 | 304 | 16.0 | 22.0 | 0.00 | 0.00 | 0.00 | 26 | 1009.9 |
| 20260901032841 | 86 | 288 | 16.0 | 22.0 | 0.00 | 0.00 | 0.00 | 26 | 1009.7 |
| 20260901032348 | 87 | 295 | 18.0 | 26.0 | 0.00 | 0.00 | 0.00 | 26 | 1009.6 |
| 20260901031820 | 87 | 279 | 17.0 | 26.0 | 0.00 | 0.00 | 0.00 | 26 | 1009.5 |
| 20260901031351 | 87 | 304 | 15.0 | 24.0 | 0.00 | 0.00 | 0.00 | 26 | 1009.4 |
| 20260901030822 | 87 | 254 | 19.0 | 25.0 | 0.00 | 0.00 | 0.00 | 26 | 1009.3 |
| 20260901030333 | 87 | 300 | 19.0 | 26.0 | 0.00 | 0.00 | 0.00 | 26 | 1009.2 |
| 20260901025839 | 87 | 294 | 18.0 | 27.0 | 0.00 | 0.00 | 0.00 | 26 | 1009.3 |
| 20260901025348 | 88 | 280 | 18.0 | 25.0 | 0.00 | 0.00 | 0.00 | 26 | 1009.2 |
| 20260901024821 | 88 | 268 | 15.0 | 23.0 | 0.00 | 0.00 | 0.00 | 25 | 1009.2 |
| 20260901024331 | 88 | 259 | 17.0 | 26.0 | 0.00 | 0.00 | 0.00 | 25 | 1009.0 |
| 20260901023823 | 88 | 279 | 14.0 | 26.0 | 0.00 | 0.00 | 0.00 | 25 | 1009.1 |
| 20260901023314 | 89 | 270 | 16.0 | 20.0 | 0.00 | 0.00 | 0.00 | 25 | 1009.0 |
| 20260901022826 | 89 | 290 | 14.0 | 19.0 | 0.00 | 0.00 | 0.00 | 25 | 1008.9 |
| 20260901022316 | 89 | 302 | 15.0 | 20.0 | 0.00 | 0.00 | 0.00 | 25 | 1008.9 |
| 20260901021830 | 90 | 303 | 14.0 | 20.0 | 0.00 | 0.00 | 0.00 | 25 | 1008.9 |
| 20260901021319 | 90 | 309 | 14.0 | 21.0 | 0.00 | 0.00 | 0.00 | 25 | 1008.8 |
| 20260901020814 | 90 | 306 | 13.0 | 23.0 | 0.00 | 0.00 | 0.00 | 25 | 1008.7 |
| 20260901020325 | 91 | 304 | 17.0 | 22.0 | 0.00 | 0.00 | 0.00 | 25 | 1008.6 |
| 20260901015833 | 91 | 309 | 17.0 | 21.0 | 0.00 | 0.00 | 0.00 | 25 | 1008.6 |
| 20260901015322 | 91 | 302 | 15.0 | 26.0 | 0.00 | 0.00 | 0.00 | 25 | 1008.6 |
| 20260901014854 | 92 | 274 | 18.0 | 26.0 | 0.00 | 0.00 | 0.00 | 25 | 1008.5 |
| 20260901014324 | 92 | 267 | 18.0 | 27.0 | 0.00 | 0.00 | 0.00 | 25 | 1008.4 |
| 20260901013816 | 92 | 277 | 22.0 | 27.0 | 0.00 | 0.00 | 0.00 | 24 | 1008.2 |
| 20260901013327 | 93 | 280 | 20.0 | 27.0 | 0.00 | 0.00 | 0.00 | 24 | 1008.3 |
| 20260901012820 | 93 | 259 | 21.0 | 27.0 | 0.00 | 0.00 | 0.00 | 24 | 1008.2 |
| 20260901012351 | 94 | 266 | 20.0 | 27.0 | 0.00 | 0.00 | 0.00 | 23 | 1008.1 |
| 20260901011827 | 94 | 247 | 14.0 | 27.0 | 0.00 | 0.00 | 0.00 | 22 | 1008.1 |
| 20260901011338 | 95 | 300 | 20.0 | 30.0 | 0.00 | 0.00 | 0.00 | 22 | 1008.0 |
| 20260901010829 | 95 | 232 | 18.0 | 30.0 | 0.00 | 0.00 | 0.00 | 22 | 1008.0 |
| 20260901010319 | 95 | 279 | 22.0 | 27.0 | 0.00 | 0.00 | 0.00 | 22 | 1007.9 |
| 20260901005829 | 95 | 273 | 18.0 | 31.0 | 0.00 | 0.00 | 0.00 | 21 | 1008.0 |
| 20260901005340 | 96 | 257 | 25.0 | 31.0 | 0.00 | 0.00 | 0.00 | 21 | 1008.1 |
| 20260901004831 | 96 | 248 | 20.0 | 30.0 | 0.00 | 0.00 | 0.00 | 21 | 1008.0 |
| 20260901004322 | 96 | 259 | 24.0 | 31.0 | 0.00 | 0.00 | 0.00 | 20 | 1007.9 |
| 20260901003815 | 97 | 269 | 24.0 | 31.0 | 0.00 | 0.00 | 0.00 | 20 | 1007.9 |
| 20260901003326 | 97 | 279 | 16.0 | 28.0 | 0.00 | 0.00 | 0.00 | 20 | 1008.0 |
| 20260901002842 | 97 | 259 | 22.0 | 28.0 | 0.00 | 0.00 | 0.00 | 20 | 1008.0 |
| 20260901002332 | 97 | 249 | 23.0 | 28.0 | 0.00 | 0.00 | 0.00 | 19 | 1008.0 |
| 20260901001824 | 97 | 247 | 20.0 | 28.0 | 0.00 | 0.00 | 0.00 | 19 | 1007.9 |
| 20260901001313 | 98 | 276 | 22.0 | 29.0 | 0.00 | 0.00 | 0.00 | 18 | 1007.8 |
| 20260901000826 | 98 | 267 | 21.0 | 25.0 | 0.00 | 0.00 | 0.00 | 18 | 1007.9 |
| 20260901000316 | 98 | 250 | 19.0 | 28.0 | 0.00 | 0.00 | 0.00 | 18 | 1008.0 |
| 20260831235826 | 99 | 262 | 19.0 | 28.0 | 0.00 | 0.00 | 0.00 | 17 | 1007.9 |
| 20260831235337 | 99 | 257 | 21.0 | 28.0 | 0.00 | 0.00 | 0.00 | 18 | 1007.9 |
| 20260831234828 | 98 | 288 | 19.0 | 28.0 | 0.00 | 0.00 | 0.00 | 19 | 1007.9 |
| 20260831234323 | 99 | 278 | 22.0 | 27.0 | 0.00 | 0.00 | 0.00 | 18 | 1007.9 |
| 20260831233814 | 99 | 263 | 21.0 | 27.0 | 0.00 | 0.00 | 0.00 | 17 | 1007.8 |
| 20260831233325 | 99 | 260 | 16.0 | 27.0 | 0.00 | 0.00 | 0.00 | 17 | 1008.0 |
| 20260831232816 | 99 | 246 | 18.0 | 27.0 | 0.00 | 0.00 | 0.00 | 17 | 1007.9 |
| 20260831232328 | 99 | 257 | 21.0 | 26.0 | 0.00 | 0.00 | 0.00 | 17 | 1007.9 |
| 20260831231820 | 99 | 259 | 18.0 | 27.0 | 0.00 | 0.00 | 0.00 | 17 | 1008.0 |
| 20260831231331 | 99 | 248 | 21.0 | 27.0 | 0.00 | 0.00 | 0.00 | 16 | 1008.0 |
| 20260831230824 | 100 | 247 | 17.0 | 25.0 | 0.00 | 0.00 | 0.00 | 16 | 1008.1 |
| 20260831230315 | 99 | 240 | 16.0 | 26.0 | 0.00 | 0.00 | 0.00 | 16 | 1008.1 |
| 20260831225824 | 100 | 263 | 21.0 | 26.0 | 0.00 | 0.00 | 0.00 | 16 | 1008.2 |
| 20260831225339 | 100 | 263 | 18.0 | 25.0 | 0.00 | 0.00 | 0.00 | 16 | 1008.2 |
| 20260831224830 | 100 | 272 | 18.0 | 26.0 | 0.00 | 0.00 | 0.00 | 16 | 1008.3 |
| 20260831224321 | 100 | 248 | 18.0 | 24.0 | 0.00 | 0.00 | 0.00 | 15 | 1008.3 |
| 20260831223813 | 100 | 267 | 15.0 | 25.0 | 0.00 | 0.00 | 0.00 | 16 | 1008.3 |
| 20260831223324 | 100 | 279 | 17.0 | 27.0 | 0.00 | 0.00 | 0.00 | 16 | 1008.3 |
| 20260831222817 | 101 | 250 | 19.0 | 27.0 | 0.00 | 0.00 | 0.00 | 16 | 1008.3 |
| 20260831222349 | 100 | 256 | 10.0 | 22.0 | 0.00 | 0.00 | 0.00 | 16 | 1008.4 |
| 20260831221820 | 100 | 247 | 11.0 | 23.0 | 0.00 | 0.00 | 0.00 | 16 | 1008.4 |
| 20260831221352 | 100 | 270 | 15.0 | 23.0 | 0.00 | 0.00 | 0.00 | 16 | 1008.5 |
| 20260831220823 | 100 | 269 | 9.0 | 18.0 | 0.00 | 0.00 | 0.00 | 16 | 1008.6 |
| 20260831220319 | 100 | 271 | 10.0 | 19.0 | 0.00 | 0.00 | 0.00 | 16 | 1008.7 |
| 20260831215828 | 100 | 256 | 13.0 | 19.0 | 0.00 | 0.00 | 0.00 | 16 | 1008.7 |
| 20260831215320 | 100 | 306 | 9.0 | 19.0 | 0.00 | 0.00 | 0.00 | 16 | 1008.7 |
| 20260831214832 | 101 | 287 | 7.0 | 14.0 | 0.00 | 0.00 | 0.00 | 16 | 1008.8 |
| 20260831214323 | 101 | 254 | 4.0 | 9.0 | 0.00 | 0.00 | 0.00 | 16 | 1008.8 |
| 20260831213816 | 101 | 146 | 5.0 | 9.0 | 0.00 | 0.00 | 0.00 | 17 | 1008.8 |
| 20260831213327 | 101 | 187 | 5.0 | 9.0 | 0.00 | 0.00 | 0.00 | 17 | 1008.9 |
| 20260831212819 | 101 | 214 | 5.0 | 9.0 | 0.00 | 0.00 | 0.00 | 16 | 1009.0 |
| 20260831212328 | 101 | 146 | 6.0 | 11.0 | 0.00 | 0.00 | 0.00 | 17 | 1009.0 |
| 20260831211824 | 101 | 200 | 7.0 | 11.0 | 0.00 | 0.00 | 0.00 | 17 | 1009.2 |
| 20260831211314 | 100 | 150 | 4.0 | 10.0 | 0.00 | 0.00 | 0.00 | 18 | 1009.2 |
| 20260831210826 | 100 | 126 | 3.0 | 10.0 | 0.00 | 0.00 | 0.00 | 17 | 1009.4 |
| 20260831210316 | 99 | 116 | 3.0 | 10.0 | 0.00 | 0.00 | 0.00 | 17 | 1009.5 |
| 20260831205825 | 99 | 210 | 2.0 | 4.0 | 0.00 | 0.00 | 0.00 | 17 | 1009.6 |
| 20260831205315 | 99 | 230 | 1.0 | 6.0 | 0.00 | 0.00 | 0.00 | 17 | 1009.6 |
| 20260831204825 | 99 | 200 | 4.0 | 9.0 | 0.00 | 0.00 | 0.00 | 18 | 1009.7 |
| 20260831204316 | 99 | 222 | 4.0 | 11.0 | 0.00 | 0.00 | 0.00 | 18 | 1009.7 |
| 20260831203847 | 99 | 204 | 3.0 | 11.0 | 0.00 | 0.00 | 0.00 | 18 | 1009.8 |
| 20260831203322 | 99 | 201 | 9.0 | 13.0 | 0.00 | 0.00 | 0.00 | 17 | 1009.8 |
| 20260831202814 | 99 | 175 | 7.0 | 12.0 | 0.00 | 0.00 | 0.00 | 18 | 1009.8 |
| 20260831202324 | 99 | 197 | 3.0 | 10.0 | 0.00 | 0.00 | 0.00 | 17 | 1009.9 |
| 20260831201816 | 99 | 190 | 6.0 | 12.0 | 0.00 | 0.00 | 0.00 | 17 | 1010.0 |
| 20260831201326 | 98 | 246 | 7.0 | 10.0 | 0.00 | 0.00 | 0.00 | 18 | 1010.0 |
| 20260831200819 | 98 | 192 | 5.0 | 10.0 | 0.00 | 0.00 | 0.00 | 17 | 1010.1 |
| 20260831200330 | 98 | 265 | 5.0 | 11.0 | 0.00 | 0.00 | 0.00 | 18 | 1010.1 |
| 20260831195818 | 98 | 206 | 8.0 | 11.0 | 0.00 | 0.00 | 0.00 | 18 | 1010.2 |
| 20260831195329 | 98 | 252 | 3.0 | 9.0 | 0.00 | 0.00 | 0.00 | 18 | 1010.2 |
| 20260831194820 | 97 | 66 | 4.0 | 9.0 | 0.00 | 0.00 | 0.00 | 18 | 1010.2 |
| 20260831194335 | 97 | 80 | 5.0 | 9.0 | 0.00 | 0.00 | 0.00 | 18 | 1010.3 |
| 20260831193827 | 98 | 138 | 5.0 | 10.0 | 0.00 | 0.00 | 0.00 | 17 | 1010.4 |
| 20260831193318 | 99 | 193 | 8.0 | 11.0 | 0.00 | 0.00 | 0.00 | 17 | 1010.3 |
| 20260831192830 | 98 | 198 | 8.0 | 10.0 | 0.00 | 0.00 | 0.00 | 17 | 1010.4 |
| 20260831192341 | 98 | 144 | 4.0 | 11.0 | 0.00 | 0.00 | 0.00 | 18 | 1010.4 |
| 20260831191832 | 98 | 134 | 9.0 | 11.0 | 0.00 | 0.00 | 0.00 | 18 | 1010.5 |
| 20260831191342 | 97 | 139 | 4.0 | 9.0 | 0.00 | 0.00 | 0.00 | 18 | 1010.6 |
| 20260831190831 | 97 | 190 | 4.0 | 9.0 | 0.00 | 0.00 | 0.00 | 18 | 1010.5 |
| 20260831190320 | 97 | 186 | 6.0 | 8.0 | 0.00 | 0.00 | 0.00 | 18 | 1010.7 |
| 20260831185829 | 97 | 136 | 2.0 | 9.0 | 0.00 | 0.00 | 0.00 | 18 | 1010.7 |
| 20260831185319 | 97 | 137 | 6.0 | 10.0 | 0.00 | 0.00 | 0.00 | 18 | 1010.7 |
| 20260831184835 | 97 | 182 | 6.0 | 10.0 | 0.00 | 0.00 | 0.00 | 18 | 1010.7 |
| 20260831184324 | 97 | 157 | 4.0 | 9.0 | 0.00 | 0.00 | 0.00 | 18 | 1010.7 |
| 20260831183836 | 97 | 137 | 6.0 | 10.0 | 0.00 | 0.00 | 0.00 | 18 | 1010.8 |
| 20260831183325 | 97 | 128 | 3.0 | 10.0 | 0.00 | 0.00 | 0.00 | 18 | 1010.8 |
| 20260831182817 | 97 | 134 | 7.0 | 10.0 | 0.00 | 0.00 | 0.00 | 18 | 1010.8 |
| 20260831182348 | 97 | 140 | 2.0 | 6.0 | 0.00 | 0.00 | 0.00 | 18 | 1010.7 |
| 20260831181819 | 96 | 136 | 3.0 | 8.0 | 0.00 | 0.00 | 0.00 | 18 | 1010.8 |
| 20260831181330 | 96 | 186 | 6.0 | 11.0 | 0.00 | 0.00 | 0.00 | 18 | 1010.8 |
| 20260831180822 | 96 | 186 | 6.0 | 11.0 | 0.00 | 0.00 | 0.00 | 18 | 1010.8 |
| 20260831180334 | 96 | 147 | 3.0 | 10.0 | 0.00 | 0.00 | 0.00 | 17 | 1010.6 |
| 20260831175822 | 95 | 183 | 4.0 | 10.0 | 0.00 | 0.00 | 0.00 | 18 | 1010.7 |
| 20260831175338 | 95 | 227 | 5.0 | 10.0 | 0.00 | 0.00 | 0.00 | 17 | 1010.7 |
| 20260831174828 | 95 | 221 | 7.0 | 9.0 | 0.00 | 0.00 | 0.00 | 16 | 1010.7 |
| 20260831174318 | 95 | 217 | 1.0 | 13.0 | 0.00 | 0.00 | 0.00 | 17 | 1010.8 |
| 20260831173852 | 95 | 219 | 7.0 | 13.0 | 0.00 | 0.00 | 0.00 | 17 | 1010.8 |
| 20260831173322 | 95 | 226 | 1.0 | 7.0 | 0.00 | 0.00 | 0.00 | 17 | 1010.8 |
| 20260831172834 | 94 | 250 | 3.0 | 7.0 | 0.00 | 0.00 | 0.00 | 17 | 1010.7 |
| 20260831172323 | 94 | 136 | 3.0 | 8.0 | 0.00 | 0.00 | 0.00 | 17 | 1010.8 |
| 20260831171814 | 93 | 157 | 5.0 | 11.0 | 0.00 | 0.00 | 0.00 | 18 | 1010.8 |
| 20260831171324 | 93 | 240 | 5.0 | 11.0 | 0.00 | 0.00 | 0.00 | 17 | 1010.7 |
| 20260831170815 | 93 | 238 | 3.0 | 9.0 | 0.00 | 0.00 | 0.00 | 17 | 1010.8 |
| 20260831170326 | 93 | 345 | 6.0 | 13.0 | 0.00 | 0.00 | 0.00 | 17 | 1010.7 |
| 20260831165818 | 93 | 279 | 10.0 | 13.0 | 0.00 | 0.00 | 0.00 | 17 | 1010.7 |
| 20260831165327 | 92 | 251 | 5.0 | 10.0 | 0.00 | 0.00 | 0.00 | 18 | 1010.7 |
| 20260831164819 | 92 | 234 | 7.0 | 15.0 | 0.00 | 0.00 | 0.00 | 17 | 1010.7 |
| 20260831164329 | 92 | 302 | 10.0 | 16.0 | 0.00 | 0.00 | 0.00 | 17 | 1010.7 |
| 20260831163820 | 91 | 287 | 11.0 | 16.0 | 0.00 | 0.00 | 0.00 | 17 | 1010.6 |
| 20260831163332 | 92 | 277 | 11.0 | 18.0 | 0.00 | 0.00 | 0.00 | 17 | 1010.7 |
| 20260831162823 | 91 | 268 | 11.0 | 18.0 | 0.00 | 0.00 | 0.00 | 16 | 1010.6 |
| 20260831162314 | 91 | 275 | 12.0 | 18.0 | 0.00 | 0.00 | 0.00 | 16 | 1010.6 |
| 20260831161826 | 91 | 273 | 11.0 | 16.0 | 0.00 | 0.00 | 0.00 | 15 | 1010.6 |
| 20260831161321 | 90 | 290 | 11.0 | 16.0 | 0.00 | 0.00 | 0.00 | 16 | 1010.5 |
| 20260831160814 | 90 | 274 | 12.0 | 15.0 | 0.00 | 0.00 | 0.00 | 17 | 1010.5 |
| 20260831160325 | 89 | 258 | 12.0 | 15.0 | 0.00 | 0.00 | 0.00 | 17 | 1010.5 |
| 20260831155814 | 89 | 258 | 10.0 | 15.0 | 0.00 | 0.00 | 0.00 | 18 | 1010.5 |
| 20260831155345 | 89 | 265 | 11.0 | 15.0 | 0.00 | 0.00 | 0.00 | 18 | 1010.5 |
| 20260831154817 | 88 | 265 | 10.0 | 13.0 | 0.00 | 0.00 | 0.00 | 18 | 1010.4 |
| 20260831154328 | 88 | 259 | 10.0 | 13.0 | 0.00 | 0.00 | 0.00 | 19 | 1010.4 |
| 20260831153820 | 87 | 246 | 9.0 | 13.0 | 0.00 | 0.00 | 0.00 | 20 | 1010.4 |
| 20260831153331 | 87 | 264 | 10.0 | 13.0 | 0.00 | 0.00 | 0.00 | 20 | 1010.4 |
| 20260831152823 | 87 | 266 | 10.0 | 13.0 | 0.00 | 0.00 | 0.00 | 21 | 1010.4 |
| 20260831152317 | 87 | 251 | 8.0 | 12.0 | 0.00 | 0.00 | 0.00 | 21 | 1010.3 |
| 20260831151829 | 86 | 244 | 6.0 | 8.0 | 0.00 | 0.00 | 0.00 | 21 | 1010.3 |
| 20260831151340 | 86 | 232 | 6.0 | 10.0 | 0.00 | 0.00 | 0.00 | 22 | 1010.3 |
| 20260831150832 | 85 | 223 | 7.0 | 10.0 | 0.00 | 0.00 | 0.00 | 22 | 1010.3 |
| 20260831150321 | 85 | 235 | 6.0 | 8.0 | 0.00 | 0.00 | 0.00 | 23 | 1010.3 |
| 20260831145828 | 85 | 240 | 7.0 | 10.0 | 0.00 | 0.00 | 0.00 | 23 | 1010.3 |
| 20260831145319 | 84 | 241 | 7.0 | 10.0 | 0.00 | 0.00 | 0.00 | 23 | 1010.2 |
| 20260831144852 | 84 | 238 | 7.0 | 10.0 | 0.00 | 0.00 | 0.00 | 23 | 1010.2 |
| 20260831144320 | 84 | 248 | 5.0 | 7.0 | 0.00 | 0.00 | 0.00 | 23 | 1010.2 |
| 20260831143832 | 83 | 246 | 5.0 | 7.0 | 0.00 | 0.00 | 0.00 | 24 | 1010.2 |
| 20260831143323 | 83 | 263 | 4.0 | 6.0 | 0.00 | 0.00 | 0.00 | 24 | 1010.1 |
| 20260831142820 | 83 | 273 | 1.0 | 6.0 | 0.00 | 0.00 | 0.00 | 24 | 1010.0 |
| 20260831142331 | 82 | 270 | 3.0 | 6.0 | 0.00 | 0.00 | 0.00 | 24 | 1009.9 |
| 20260831141822 | 82 | 267 | 3.0 | 4.0 | 0.00 | 0.00 | 0.00 | 25 | 1009.9 |
| 20260831141312 | 81 | 267 | 2.0 | 7.0 | 0.00 | 0.00 | 0.00 | 25 | 1009.8 |
| 20260831140826 | 81 | 267 | 3.0 | 9.0 | 0.00 | 0.00 | 0.00 | 25 | 1009.7 |
| 20260831140315 | 81 | 283 | 6.0 | 11.0 | 0.00 | 0.00 | 0.00 | 25 | 1009.7 |
| 20260831135825 | 81 | 277 | 7.0 | 11.0 | 0.00 | 0.00 | 0.00 | 25 | 1009.6 |
| 20260831135315 | 80 | 285 | 9.0 | 12.0 | 0.00 | 0.00 | 0.00 | 26 | 1009.5 |
| 20260831134828 | 80 | 298 | 10.0 | 12.0 | 0.00 | 0.00 | 0.00 | 27 | 1009.5 |
| 20260831134323 | 79 | 306 | 9.0 | 11.0 | 0.00 | 0.00 | 0.00 | 28 | 1009.4 |
| 20260831133835 | 80 | 290 | 9.0 | 11.0 | 0.00 | 0.00 | 0.00 | 27 | 1009.3 |
| 20260831133325 | 80 | 301 | 9.0 | 12.0 | 0.00 | 0.00 | 0.00 | 27 | 1009.2 |
| 20260831132817 | 81 | 300 | 8.0 | 13.0 | 0.00 | 0.00 | 0.00 | 26 | 1009.1 |
| 20260831132347 | 81 | 270 | 10.0 | 15.0 | 0.00 | 0.00 | 0.00 | 25 | 1009.1 |
| 20260831131819 | 81 | 279 | 11.0 | 15.0 | 0.00 | 0.00 | 0.00 | 26 | 1009.1 |
| 20260831131330 | 79 | 285 | 11.0 | 13.0 | 0.00 | 0.00 | 0.00 | 29 | 1009.1 |
| 20260831130843 | 79 | 279 | 9.0 | 11.0 | 0.00 | 0.00 | 0.00 | 30 | 1009.2 |
| 20260831130332 | 79 | 276 | 8.0 | 11.0 | 0.00 | 0.00 | 0.00 | 30 | 1009.1 |
| 20260831125841 | 80 | 261 | 9.0 | 13.0 | 0.00 | 0.00 | 0.00 | 31 | 1009.0 |
| 20260831125330 | 79 | 272 | 11.0 | 13.0 | 0.00 | 0.00 | 0.00 | 32 | 1009.0 |
| 20260831124825 | 80 | 287 | 9.0 | 12.0 | 0.00 | 0.00 | 0.00 | 31 | 1008.9 |
| 20260831124316 | 80 | 288 | 10.0 | 12.0 | 0.00 | 0.00 | 0.00 | 31 | 1008.9 |
| 20260831123828 | 79 | 262 | 9.0 | 13.0 | 0.00 | 0.00 | 0.00 | 32 | 1008.9 |
| 20260831123319 | 80 | 274 | 10.0 | 13.0 | 0.00 | 0.00 | 0.00 | 32 | 1008.9 |
| 20260831122832 | 80 | 277 | 9.0 | 13.0 | 0.00 | 0.00 | 0.00 | 32 | 1008.9 |
| 20260831122344 | 80 | 277 | 10.0 | 13.0 | 0.00 | 0.00 | 0.00 | 32 | 1008.9 |
| 20260831121815 | 81 | 290 | 10.0 | 14.0 | 0.00 | 0.00 | 0.00 | 31 | 1008.8 |
| 20260831121324 | 81 | 296 | 10.0 | 15.0 | 0.00 | 0.00 | 0.00 | 31 | 1008.8 |
| 20260831120815 | 81 | 302 | 12.0 | 16.0 | 0.00 | 0.00 | 0.00 | 31 | 1008.8 |
| 20260831120330 | 81 | 285 | 10.0 | 16.0 | 0.00 | 0.00 | 0.00 | 32 | 1008.8 |
| 20260831115818 | 81 | 268 | 11.0 | 14.0 | 0.00 | 0.00 | 0.00 | 32 | 1008.8 |
| 20260831115329 | 81 | 298 | 11.0 | 13.0 | 0.00 | 0.00 | 0.00 | 32 | 1008.8 |
| 20260831114840 | 81 | 302 | 11.0 | 14.0 | 0.00 | 0.00 | 0.00 | 32 | 1008.7 |
| 20260831114331 | 80 | 311 | 11.0 | 13.0 | 0.00 | 0.00 | 0.00 | 32 | 1008.7 |
| 20260831113823 | 81 | 305 | 10.0 | 13.0 | 0.00 | 0.00 | 0.00 | 32 | 1008.7 |
| 20260831113314 | 81 | 297 | 9.0 | 11.0 | 0.00 | 0.00 | 0.00 | 32 | 1008.6 |
| 20260831112825 | 81 | 300 | 9.0 | 13.0 | 0.00 | 0.00 | 0.00 | 31 | 1008.6 |
| 20260831112316 | 81 | 297 | 10.0 | 13.0 | 0.00 | 0.00 | 0.00 | 31 | 1008.6 |
| 20260831111828 | 81 | 304 | 9.0 | 11.0 | 0.00 | 0.00 | 0.00 | 32 | 1008.6 |
| 20260831111323 | 81 | 302 | 9.0 | 12.0 | 0.00 | 0.00 | 0.00 | 32 | 1008.6 |
| 20260831110814 | 81 | 285 | 8.0 | 13.0 | 0.00 | 0.00 | 0.00 | 32 | 1008.5 |
| 20260831110325 | 81 | 279 | 11.0 | 13.0 | 0.00 | 0.00 | 0.00 | 32 | 1008.5 |
| 20260831105814 | 82 | 288 | 9.0 | 12.0 | 0.00 | 0.00 | 0.00 | 32 | 1008.5 |
| 20260831105324 | 82 | 298 | 9.0 | 11.0 | 0.00 | 0.00 | 0.00 | 31 | 1008.5 |
| 20260831104816 | 82 | 309 | 8.0 | 14.0 | 0.00 | 0.00 | 0.00 | 30 | 1008.5 |
| 20260831104328 | 83 | 286 | 10.0 | 14.0 | 0.00 | 0.00 | 0.00 | 29 | 1008.5 |
| 20260831103819 | 82 | 299 | 10.0 | 13.0 | 0.00 | 0.00 | 0.00 | 29 | 1008.5 |
| 20260831103314 | 83 | 288 | 8.0 | 11.0 | 0.00 | 0.00 | 0.00 | 29 | 1008.5 |
| 20260831102846 | 83 | 288 | 8.0 | 14.0 | 0.00 | 0.00 | 0.00 | 29 | 1008.5 |
| 20260831102328 | 83 | 281 | 9.0 | 14.0 | 0.00 | 0.00 | 0.00 | 29 | 1008.5 |
| 20260831101820 | 82 | 309 | 9.0 | 11.0 | 0.00 | 0.00 | 0.00 | 30 | 1008.4 |
| 20260831101330 | 82 | 309 | 8.0 | 10.0 | 0.00 | 0.00 | 0.00 | 30 | 1008.4 |
| 20260831100822 | 83 | 311 | 8.0 | 13.0 | 0.00 | 0.00 | 0.00 | 30 | 1008.5 |
| 20260831100313 | 83 | 295 | 10.0 | 13.0 | 0.00 | 0.00 | 0.00 | 30 | 1008.4 |
| 20260831095843 | 83 | 306 | 9.0 | 11.0 | 0.00 | 0.00 | 0.00 | 30 | 1008.4 |
| 20260831095313 | 82 | 309 | 9.0 | 11.0 | 0.00 | 0.00 | 0.00 | 31 | 1008.4 |
| 20260831094826 | 83 | 283 | 8.0 | 11.0 | 0.00 | 0.00 | 0.00 | 31 | 1008.4 |
| 20260831094317 | 83 | 286 | 9.0 | 15.0 | 0.00 | 0.00 | 0.00 | 30 | 1008.4 |
| 20260831093813 | 83 | 309 | 11.0 | 15.0 | 0.00 | 0.00 | 0.00 | 31 | 1008.4 |
| 20260831093324 | 83 | 315 | 11.0 | 14.0 | 0.00 | 0.00 | 0.00 | 31 | 1008.3 |
| 20260831092816 | 83 | 315 | 8.0 | 11.0 | 0.00 | 0.00 | 0.00 | 31 | 1008.4 |
| 20260831092326 | 84 | 294 | 9.0 | 13.0 | 0.00 | 0.00 | 0.00 | 30 | 1008.3 |
| 20260831091820 | 84 | 304 | 11.0 | 14.0 | 0.00 | 0.00 | 0.00 | 29 | 1008.3 |
| 20260831091331 | 85 | 299 | 10.0 | 15.0 | 0.00 | 0.00 | 0.00 | 28 | 1008.3 |
| 20260831090822 | 85 | 291 | 9.0 | 15.0 | 0.00 | 0.00 | 0.00 | 27 | 1008.4 |
| 20260831090312 | 85 | 278 | 11.0 | 17.0 | 0.00 | 0.00 | 0.00 | 27 | 1008.3 |
| 20260831085823 | 85 | 285 | 14.0 | 17.0 | 0.00 | 0.00 | 0.00 | 27 | 1008.3 |
| 20260831085317 | 86 | 282 | 14.0 | 17.0 | 0.00 | 0.00 | 0.00 | 26 | 1008.4 |
| 20260831084830 | 86 | 302 | 12.0 | 15.0 | 0.00 | 0.00 | 0.00 | 26 | 1008.5 |
| 20260831084321 | 86 | 271 | 11.0 | 15.0 | 0.00 | 0.00 | 0.00 | 26 | 1008.6 |
| 20260831083833 | 86 | 274 | 11.0 | 15.0 | 0.00 | 0.00 | 0.00 | 26 | 1008.5 |
| 20260831083324 | 86 | 304 | 10.0 | 18.0 | 0.00 | 0.00 | 0.00 | 26 | 1008.6 |
| 20260831082836 | 87 | 288 | 13.0 | 20.0 | 0.00 | 0.00 | 0.00 | 26 | 1008.6 |
| 20260831082326 | 87 | 268 | 16.0 | 20.0 | 0.00 | 0.00 | 0.00 | 26 | 1008.7 |
| 20260831081838 | 87 | 270 | 12.0 | 16.0 | 0.00 | 0.00 | 0.00 | 26 | 1008.7 |
| 20260831081326 | 87 | 283 | 12.0 | 18.0 | 0.00 | 0.00 | 0.00 | 25 | 1008.7 |
| 20260831080818 | 87 | 288 | 13.0 | 18.0 | 0.00 | 0.00 | 0.00 | 26 | 1008.7 |
| 20260831080332 | 86 | 290 | 12.0 | 18.0 | 0.00 | 0.00 | 0.00 | 26 | 1008.8 |
| 20260831075823 | 86 | 273 | 11.0 | 16.0 | 0.00 | 0.00 | 0.00 | 26 | 1008.8 |
| 20260831075314 | 86 | 281 | 12.0 | 15.0 | 0.00 | 0.00 | 0.00 | 26 | 1008.8 |
| 20260831074826 | 87 | 284 | 12.0 | 17.0 | 0.00 | 0.00 | 0.00 | 26 | 1008.8 |
| 20260831074317 | 87 | 257 | 13.0 | 17.0 | 0.00 | 0.00 | 0.00 | 26 | 1008.8 |
| 20260831073850 | 87 | 281 | 10.0 | 16.0 | 0.00 | 0.00 | 0.00 | 26 | 1008.8 |
| 20260831073320 | 87 | 296 | 13.0 | 18.0 | 0.00 | 0.00 | 0.00 | 26 | 1008.7 |
| 20260831072813 | 87 | 289 | 12.0 | 20.0 | 0.00 | 0.00 | 0.00 | 26 | 1008.7 |
| 20260831072324 | 87 | 270 | 16.0 | 20.0 | 0.00 | 0.00 | 0.00 | 26 | 1008.7 |
| 20260831071821 | 87 | 308 | 13.0 | 21.0 | 0.00 | 0.00 | 0.00 | 26 | 1008.7 |
| 20260831071351 | 87 | 300 | 15.0 | 21.0 | 0.00 | 0.00 | 0.00 | 26 | 1008.7 |
| 20260831070821 | 87 | 301 | 15.0 | 20.0 | 0.00 | 0.00 | 0.00 | 26 | 1008.7 |
| 20260831070313 | 87 | 290 | 12.0 | 16.0 | 0.00 | 0.00 | 0.00 | 26 | 1008.6 |
| 20260831065822 | 87 | 284 | 12.0 | 20.0 | 0.00 | 0.00 | 0.00 | 27 | 1008.6 |
| 20260831065313 | 88 | 294 | 15.0 | 22.0 | 0.00 | 0.00 | 0.00 | 26 | 1008.7 |
| 20260831064846 | 88 | 290 | 17.0 | 21.0 | 0.00 | 0.00 | 0.00 | 26 | 1008.6 |
| 20260831064316 | 88 | 288 | 15.0 | 23.0 | 0.00 | 0.00 | 0.00 | 26 | 1008.6 |
| 20260831063829 | 88 | 285 | 16.0 | 23.0 | 0.00 | 0.00 | 0.00 | 26 | 1008.7 |
| 20260831063318 | 88 | 267 | 16.0 | 22.0 | 0.00 | 0.00 | 0.00 | 26 | 1008.6 |
| 20260831062815 | 88 | 288 | 13.0 | 20.0 | 0.00 | 0.00 | 0.00 | 26 | 1008.6 |
| 20260831062345 | 87 | 298 | 14.0 | 20.0 | 0.00 | 0.00 | 0.00 | 26 | 1008.6 |
| 20260831061816 | 87 | 291 | 13.0 | 20.0 | 0.00 | 0.00 | 0.00 | 26 | 1008.6 |
| 20260831061327 | 88 | 280 | 14.0 | 20.0 | 0.00 | 0.00 | 0.00 | 26 | 1008.6 |
| 20260831060817 | 88 | 274 | 14.0 | 20.0 | 0.00 | 0.00 | 0.00 | 25 | 1008.6 |
| 20260831060327 | 88 | 288 | 15.0 | 28.0 | 0.00 | 0.00 | 0.00 | 26 | 1008.6 |
| 20260831055816 | 88 | 295 | 19.0 | 28.0 | 0.00 | 0.00 | 0.00 | 25 | 1008.6 |
| 20260831055327 | 88 | 309 | 18.0 | 24.0 | 0.00 | 0.00 | 0.00 | 25 | 1008.6 |
| 20260831054817 | 88 | 297 | 16.0 | 22.0 | 0.00 | 0.00 | 0.00 | 25 | 1008.7 |
| 20260831054327 | 88 | 280 | 18.0 | 23.0 | 0.00 | 0.00 | 0.00 | 25 | 1008.6 |
| 20260831053823 | 88 | 298 | 17.0 | 25.0 | 0.00 | 0.00 | 0.00 | 26 | 1008.7 |
| 20260831053314 | 88 | 279 | 19.0 | 25.0 | 0.00 | 0.00 | 0.00 | 25 | 1008.6 |
| 20260831052826 | 88 | 287 | 18.0 | 24.0 | 0.00 | 0.00 | 0.00 | 26 | 1008.6 |
| 20260831052317 | 88 | 302 | 15.0 | 21.0 | 0.00 | 0.00 | 0.00 | 26 | 1008.6 |